Time,TemperatureF,DewpointF,PressureIn,WindDirection,WindDirectionDegrees,WindSpeedMPH,WindSpeedGustMPH,Humidity,HourlyPrecipIn,Conditions,Clouds,dailyrainin,SoftwareType,DateUTC
2013-01-15 00:00:00,35.0,28.8,30.19,NW,316,3.0,22.0,78,0.00,,,0.01,Wunderground v.1.15,2013-01-15 04:00:00,
2013-01-15 00:10:00,34.4,28.6,30.19,WNW,282,3.0,3.0,79,0.00,,,0.00,Wunderground v.1.15,2013-01-15 04:10:00,
2013-01-15 00:20:00,33.9,27.8,30.18,NW,312,2.0,22.0,78,0.00,,,0.00,Wunderground v.1.15,2013-01-15 04:20:00,
2013-01-15 00:30:00,33.8,27.0,30.18,West,267,3.0,3.0,76,0.00,,,0.00,Wunderground v.1.15,2013-01-15 04:30:00,
2013-01-15 00:40:00,33.5,26.7,30.18,NNW,347,2.0,2.0,76,0.00,,,0.00,Wunderground v.1.15,2013-01-15 04:40:00,
2013-01-15 00:50:00,33.3,26.5,30.18,West,264,3.0,3.0,76,0.00,,,0.00,Wunderground v.1.15,2013-01-15 04:50:00,
2013-01-15 01:00:00,33.0,26.6,30.19,West,278,2.0,2.0,77,0.00,,,0.00,Wunderground v.1.15,2013-01-15 05:00:00,
2013-01-15 01:10:00,32.7,26.3,30.20,WSW,245,2.0,2.0,77,0.00,,,0.00,Wunderground v.1.15,2013-01-15 05:10:00,
2013-01-15 01:20:00,32.4,26.0,30.21,WSW,255,2.0,2.0,77,0.00,,,0.00,Wunderground v.1.15,2013-01-15 05:20:00,
2013-01-15 01:30:00,32.3,25.9,30.22,WNW,293,2.0,22.0,77,0.00,,,0.00,Wunderground v.1.15,2013-01-15 05:30:00,
2013-01-15 01:40:00,32.1,25.7,30.22,WSW,239,2.0,22.0,77,0.00,,,0.00,Wunderground v.1.15,2013-01-15 05:40:00,
2013-01-15 01:50:00,32.0,25.0,30.22,WSW,238,3.0,22.0,75,0.00,,,0.00,Wunderground v.1.15,2013-01-15 05:50:00,
2013-01-15 02:00:00,31.9,24.9,30.23,WNW,285,2.0,22.0,75,0.00,,,0.00,Wunderground v.1.15,2013-01-15 06:00:00,
2013-01-15 02:10:00,31.8,24.1,30.22,West,270,3.0,22.0,73,0.00,,,0.00,Wunderground v.1.15,2013-01-15 06:10:00,
2013-01-15 02:20:00,31.6,24.3,30.23,WSW,257,3.0,22.0,74,0.00,,,0.00,Wunderground v.1.15,2013-01-15 06:20:00,
2013-01-15 02:30:00,31.4,24.1,30.22,West,274,3.0,22.0,74,0.00,,,0.00,Wunderground v.1.15,2013-01-15 06:30:00,
2013-01-15 02:40:00,31.3,23.3,30.23,NW,304,3.0,3.0,72,0.00,,,0.00,Wunderground v.1.15,2013-01-15 06:40:00,
2013-01-15 02:50:00,31.3,23.0,30.25,West,270,3.0,22.0,71,0.00,,,0.00,Wunderground v.1.15,2013-01-15 06:50:00,
2013-01-15 03:00:00,31.1,23.1,30.24,West,263,3.0,3.0,72,0.00,,,0.00,Wunderground v.1.15,2013-01-15 07:00:00,
2013-01-15 03:10:00,31.0,23.4,30.25,West,267,3.0,3.0,73,0.00,,,0.00,Wunderground v.1.15,2013-01-15 07:10:00,
2013-01-15 03:20:00,30.8,23.2,30.26,West,281,3.0,3.0,73,0.00,,,0.00,Wunderground v.1.15,2013-01-15 07:20:00,
2013-01-15 03:30:00,30.6,23.3,30.26,WNW,284,3.0,3.0,74,0.00,,,0.00,Wunderground v.1.15,2013-01-15 07:30:00,
2013-01-15 03:40:00,30.5,22.9,30.26,West,273,3.0,22.0,73,0.00,,,0.00,Wunderground v.1.15,2013-01-15 07:40:00,
2013-01-15 03:50:00,30.4,22.4,30.26,West,276,3.0,22.0,72,0.00,,,0.00,Wunderground v.1.15,2013-01-15 07:50:00,
2013-01-15 04:00:00,30.3,22.4,30.25,WSW,256,3.0,3.0,72,0.00,,,0.00,Wunderground v.1.15,2013-01-15 08:00:00,
2013-01-15 04:10:00,30.1,21.8,30.25,WNW,282,3.0,22.0,71,0.00,,,0.00,Wunderground v.1.15,2013-01-15 08:10:00,
2013-01-15 04:20:00,30.0,22.1,30.24,NW,314,3.0,3.0,72,0.00,,,0.00,Wunderground v.1.15,2013-01-15 08:20:00,
2013-01-15 04:30:00,29.8,21.5,30.24,West,270,3.0,22.0,71,0.00,,,0.00,Wunderground v.1.15,2013-01-15 08:30:00,
2013-01-15 04:40:00,29.7,21.4,30.24,WNW,284,4.0,4.0,71,0.00,,,0.00,Wunderground v.1.15,2013-01-15 08:40:00,
2013-01-15 04:50:00,29.6,21.7,30.24,West,263,2.0,22.0,72,0.00,,,0.00,Wunderground v.1.15,2013-01-15 08:50:00,
2013-01-15 05:00:00,29.6,22.0,30.25,West,263,2.0,22.0,73,0.00,,,0.00,Wunderground v.1.15,2013-01-15 09:00:00,
2013-01-15 05:10:00,29.4,20.8,30.25,West,276,4.0,4.0,70,0.00,,,0.00,Wunderground v.1.15,2013-01-15 09:10:00,
2013-01-15 05:20:00,29.3,20.4,30.25,WNW,290,3.0,22.0,69,0.00,,,0.00,Wunderground v.1.15,2013-01-15 09:20:00,
2013-01-15 05:30:00,29.2,21.3,30.27,West,267,3.0,3.0,72,0.00,,,0.00,Wunderground v.1.15,2013-01-15 09:30:00,
2013-01-15 05:40:00,29.0,20.8,30.28,West,269,3.0,3.0,71,0.00,,,0.00,Wunderground v.1.15,2013-01-15 09:40:00,
2013-01-15 05:50:00,28.8,20.2,30.28,NW,320,2.0,22.0,70,0.00,,,0.00,Wunderground v.1.15,2013-01-15 09:50:00,
2013-01-15 06:00:00,28.7,19.5,30.27,West,271,3.0,22.0,68,0.00,,,0.00,Wunderground v.1.15,2013-01-15 10:00:00,
2013-01-15 06:10:00,28.5,20.0,30.29,SW,225,3.0,3.0,70,0.00,,,0.00,Wunderground v.1.15,2013-01-15 10:10:00,
2013-01-15 06:20:00,28.4,20.2,30.30,West,281,2.0,22.0,71,0.00,,,0.00,Wunderground v.1.15,2013-01-15 10:20:00,
2013-01-15 06:30:00,28.2,19.7,30.29,South,172,3.0,22.0,70,0.00,,,0.00,Wunderground v.1.15,2013-01-15 10:30:00,
2013-01-15 06:40:00,28.0,19.5,30.30,West,280,2.0,2.0,70,0.00,,,0.00,Wunderground v.1.15,2013-01-15 10:40:00,
2013-01-15 06:50:00,27.7,19.5,30.30,NW,325,2.0,2.0,71,0.00,,,0.00,Wunderground v.1.15,2013-01-15 10:50:00,
2013-01-15 07:00:00,27.4,18.9,30.30,West,273,2.0,22.0,70,0.00,,,0.00,Wunderground v.1.15,2013-01-15 11:00:00,
2013-01-15 07:10:00,27.2,19.0,30.30,NW,321,2.0,22.0,71,0.00,,,0.00,Wunderground v.1.15,2013-01-15 11:10:00,
2013-01-15 07:20:00,26.9,18.7,30.31,NW,322,2.0,22.0,71,0.00,,,0.00,Wunderground v.1.15,2013-01-15 11:20:00,
2013-01-15 07:30:00,26.7,18.2,30.31,WSW,243,3.0,3.0,70,0.00,,,0.00,Wunderground v.1.15,2013-01-15 11:30:00,
2013-01-15 07:40:00,26.5,18.4,30.32,WNW,288,2.0,22.0,71,0.00,,,0.00,Wunderground v.1.15,2013-01-15 11:40:00,
2013-01-15 07:50:00,26.2,18.1,30.32,West,276,2.0,2.0,71,0.00,,,0.00,Wunderground v.1.15,2013-01-15 11:50:00,
2013-01-15 08:00:00,26.0,18.2,30.33,WSW,252,2.0,22.0,72,0.00,,,0.00,Wunderground v.1.15,2013-01-15 12:00:00,
2013-01-15 08:10:00,25.8,18.0,30.32,West,281,2.0,22.0,72,0.00,,,0.00,Wunderground v.1.15,2013-01-15 12:10:00,
2013-01-15 08:20:00,26.0,18.2,30.33,NNW,330,2.0,2.0,72,0.00,,,0.00,Wunderground v.1.15,2013-01-15 12:20:00,
2013-01-15 08:30:00,26.2,18.1,30.33,WNW,282,2.0,22.0,71,0.00,,,0.00,Wunderground v.1.15,2013-01-15 12:30:00,
2013-01-15 08:40:00,26.7,17.9,30.34,WNW,293,2.0,2.0,69,0.00,,,0.00,Wunderground v.1.15,2013-01-15 12:40:00,
2013-01-15 08:50:00,27.1,17.9,30.34,SW,221,3.0,3.0,68,0.00,,,0.00,Wunderground v.1.15,2013-01-15 12:50:00,
2013-01-15 09:00:00,27.4,18.2,30.35,North,352,3.0,3.0,68,0.00,,,0.00,Wunderground v.1.15,2013-01-15 13:00:00,
2013-01-15 09:10:00,27.5,18.3,30.35,NW,321,3.0,22.0,68,0.00,,,0.00,Wunderground v.1.15,2013-01-15 13:10:00,
2013-01-15 09:20:00,27.7,18.5,30.35,NNW,338,3.0,3.0,68,0.00,,,0.00,Wunderground v.1.15,2013-01-15 13:20:00,
2013-01-15 09:30:00,27.9,18.4,30.36,NNW,332,3.0,22.0,67,0.00,,,0.00,Wunderground v.1.15,2013-01-15 13:30:00,
2013-01-15 09:40:00,28.2,19.0,30.36,WNW,286,2.0,22.0,68,0.00,,,0.00,Wunderground v.1.15,2013-01-15 13:40:00,
2013-01-15 09:50:00,28.3,18.7,30.36,WNW,295,2.0,22.0,67,0.00,,,0.00,Wunderground v.1.15,2013-01-15 13:50:00,
2013-01-15 10:00:00,28.1,18.5,30.35,North,11,3.0,3.0,67,0.00,,,0.00,Wunderground v.1.15,2013-01-15 14:00:00,
2013-01-15 10:10:00,28.4,18.8,30.35,North,354,2.0,2.0,67,0.00,,,0.00,Wunderground v.1.15,2013-01-15 14:10:00,
2013-01-15 10:20:00,28.7,19.1,30.36,West,274,2.0,22.0,67,0.00,,,0.00,Wunderground v.1.15,2013-01-15 14:20:00,
2013-01-15 10:30:00,28.5,18.9,30.36,NW,304,3.0,22.0,67,0.00,,,0.00,Wunderground v.1.15,2013-01-15 14:30:00,
2013-01-15 10:40:00,28.5,18.9,30.35,NE,56,3.0,22.0,67,0.00,,,0.00,Wunderground v.1.15,2013-01-15 14:40:00,
2013-01-15 10:50:00,28.2,18.6,30.35,NW,310,3.0,22.0,67,0.00,,,0.00,Wunderground v.1.15,2013-01-15 14:50:00,
2013-01-15 11:00:00,27.7,18.5,30.35,East,79,3.0,3.0,68,0.00,,,0.00,Wunderground v.1.15,2013-01-15 15:00:00,
2013-01-15 11:10:00,28.0,18.5,30.36,WNW,293,3.0,3.0,67,0.00,,,0.00,Wunderground v.1.15,2013-01-15 15:10:00,
2013-01-15 11:20:00,27.7,18.8,30.35,West,260,2.0,22.0,69,0.00,,,0.00,Wunderground v.1.15,2013-01-15 15:20:00,
2013-01-15 11:30:00,27.4,18.6,30.36,WSW,249,3.0,22.0,69,0.00,,,0.00,Wunderground v.1.15,2013-01-15 15:30:00,
2013-01-15 11:40:00,27.0,18.5,30.36,WNW,292,3.0,3.0,70,0.00,,,0.00,Wunderground v.1.15,2013-01-15 15:40:00,
2013-01-15 11:50:00,27.3,18.8,30.35,North,8,3.0,22.0,70,0.00,,,0.00,Wunderground v.1.15,2013-01-15 15:50:00,
2013-01-15 12:00:00,27.1,18.3,30.35,WNW,283,4.0,4.0,69,0.00,,,0.00,Wunderground v.1.15,2013-01-15 16:00:00,
2013-01-15 12:10:00,27.7,19.2,30.35,WSW,238,3.0,3.0,70,0.00,,,0.00,Wunderground v.1.15,2013-01-15 16:10:00,
2013-01-15 12:20:00,27.8,18.9,30.34,NW,314,3.0,3.0,69,0.00,,,0.00,Wunderground v.1.15,2013-01-15 16:20:00,
2013-01-15 12:30:00,27.7,18.5,30.34,ESE,118,3.0,3.0,68,0.00,,,0.00,Wunderground v.1.15,2013-01-15 16:30:00,
2013-01-15 12:40:00,27.9,19.0,30.34,WNW,283,3.0,3.0,69,0.00,,,0.00,Wunderground v.1.15,2013-01-15 16:40:00,
2013-01-15 12:50:00,28.0,18.5,30.33,WNW,282,3.0,3.0,67,0.00,,,0.00,Wunderground v.1.15,2013-01-15 16:50:00,
2013-01-15 13:00:00,27.3,17.8,30.33,NNW,338,3.0,22.0,67,0.00,,,0.00,Wunderground v.1.15,2013-01-15 17:00:00,
2013-01-15 13:10:00,26.9,17.7,30.33,North,354,4.0,22.0,68,0.00,,,0.00,Wunderground v.1.15,2013-01-15 17:10:00,
2013-01-15 13:20:00,26.8,17.6,30.33,West,276,3.0,22.0,68,0.00,,,0.00,Wunderground v.1.15,2013-01-15 17:20:00,
2013-01-15 13:30:00,26.7,17.6,30.33,West,278,3.0,3.0,68,0.00,,,0.00,Wunderground v.1.15,2013-01-15 17:30:00,
2013-01-15 13:40:00,26.7,17.6,30.33,NNE,23,2.0,22.0,68,0.00,,,0.00,Wunderground v.1.15,2013-01-15 17:40:00,
2013-01-15 13:50:00,26.4,17.3,30.33,NE,37,3.0,3.0,68,0.00,,,0.00,Wunderground v.1.15,2013-01-15 17:50:00,
2013-01-15 14:00:00,26.4,17.3,30.33,West,280,3.0,3.0,68,0.00,,,0.00,Wunderground v.1.15,2013-01-15 18:00:00,
2013-01-15 14:10:00,26.9,18.1,30.33,SSW,207,2.0,2.0,69,0.00,,,0.00,Wunderground v.1.15,2013-01-15 18:10:00,
2013-01-15 14:20:00,26.6,17.1,30.33,WNW,300,2.0,22.0,67,0.00,,,0.00,Wunderground v.1.15,2013-01-15 18:20:00,
2013-01-15 14:30:00,26.4,17.3,30.33,West,280,2.0,2.0,68,0.00,,,0.00,Wunderground v.1.15,2013-01-15 18:30:00,
2013-01-15 14:40:00,26.7,16.5,30.33,West,280,1.0,22.0,65,0.00,,,0.00,Wunderground v.1.15,2013-01-15 18:40:00,
2013-01-15 14:50:00,26.7,16.5,30.34,West,276,2.0,2.0,65,0.00,,,0.00,Wunderground v.1.15,2013-01-15 18:50:00,
2013-01-15 15:00:00,26.7,16.5,30.35,West,277,1.0,22.0,65,0.00,,,0.00,Wunderground v.1.15,2013-01-15 19:00:00,
2013-01-15 15:10:00,26.6,16.4,30.35,WSW,248,2.0,2.0,65,0.00,,,0.00,Wunderground v.1.15,2013-01-15 19:10:00,
2013-01-15 15:20:00,26.5,16.3,30.35,West,262,2.0,2.0,65,0.00,,,0.00,Wunderground v.1.15,2013-01-15 19:20:00,
2013-01-15 15:30:00,26.5,16.7,30.35,West,280,1.0,1.0,66,0.00,,,0.00,Wunderground v.1.15,2013-01-15 19:30:00,
2013-01-15 15:40:00,26.6,16.4,30.35,West,276,1.0,22.0,65,0.00,,,0.00,Wunderground v.1.15,2013-01-15 19:40:00,
2013-01-15 15:50:00,26.0,15.1,30.35,NW,314,2.0,2.0,63,0.00,,,0.00,Wunderground v.1.15,2013-01-15 19:50:00,
2013-01-15 16:00:00,25.3,15.2,30.35,West,276,1.0,22.0,65,0.00,,,0.00,Wunderground v.1.15,2013-01-15 20:00:00,
2013-01-15 16:10:00,24.6,14.9,30.35,West,274,2.0,22.0,66,0.00,,,0.00,Wunderground v.1.15,2013-01-15 20:10:00,
2013-01-15 16:20:00,24.2,14.8,30.35,West,266,2.0,2.0,67,0.00,,,0.00,Wunderground v.1.15,2013-01-15 20:20:00,
2013-01-15 16:30:00,23.8,14.4,30.35,WNW,284,1.0,22.0,67,0.00,,,0.00,Wunderground v.1.15,2013-01-15 20:30:00,
2013-01-15 16:40:00,23.5,14.1,30.35,SSW,212,1.0,1.0,67,0.00,,,0.00,Wunderground v.1.15,2013-01-15 20:40:00,
2013-01-15 16:50:00,22.9,14.2,30.35,West,266,0.0,22.0,69,0.00,,,0.00,Wunderground v.1.15,2013-01-15 20:50:00,
2013-01-15 17:00:00,22.4,14.1,30.36,WSW,252,0.0,22.0,70,0.00,,,0.00,Wunderground v.1.15,2013-01-15 21:00:00,
2013-01-15 17:10:00,22.0,14.0,30.36,SW,233,0.0,22.0,71,0.00,,,0.00,Wunderground v.1.15,2013-01-15 21:10:00,
2013-01-15 17:20:00,21.6,14.3,30.36,South,191,0.0,22.0,73,0.00,,,0.00,Wunderground v.1.15,2013-01-15 21:20:00,
2013-01-15 17:30:00,21.2,13.9,30.37,SSW,210,0.0,22.0,73,0.00,,,0.00,Wunderground v.1.15,2013-01-15 21:30:00,
2013-01-15 17:40:00,20.7,14.0,30.37,SSW,208,0.0,22.0,75,0.00,,,0.00,Wunderground v.1.15,2013-01-15 21:40:00,
2013-01-15 17:50:00,19.5,12.9,30.36,SSE,156,0.0,22.0,75,0.00,,,0.00,Wunderground v.1.15,2013-01-15 21:50:00,
2013-01-15 18:00:00,18.9,13.2,30.36,SSE,157,0.0,22.0,78,0.00,,,0.00,Wunderground v.1.15,2013-01-15 22:00:00,
2013-01-15 18:10:00,18.4,13.3,30.37,SSE,156,0.0,22.0,80,0.00,,,0.00,Wunderground v.1.15,2013-01-15 22:10:00,
2013-01-15 18:20:00,17.6,12.8,30.37,SSE,157,0.0,22.0,81,0.00,,,0.00,Wunderground v.1.15,2013-01-15 22:20:00,
2013-01-15 18:30:00,17.0,12.5,30.37,SSE,157,0.0,22.0,82,0.00,,,0.00,Wunderground v.1.15,2013-01-15 22:30:00,
2013-01-15 18:40:00,16.8,12.8,30.37,SSE,157,0.0,22.0,84,0.00,,,0.00,Wunderground v.1.15,2013-01-15 22:40:00,
2013-01-15 18:50:00,16.7,13.0,30.37,SSE,156,0.0,22.0,85,0.00,,,0.00,Wunderground v.1.15,2013-01-15 22:50:00,
2013-01-15 19:00:00,16.1,12.7,30.37,SSE,156,0.0,22.0,86,0.00,,,0.00,Wunderground v.1.15,2013-01-15 23:00:00,
2013-01-15 19:10:00,15.5,12.3,30.37,SSE,156,0.0,22.0,87,0.00,,,0.00,Wunderground v.1.15,2013-01-15 23:10:00,
2013-01-15 19:20:00,16.5,13.3,30.37,SSW,194,1.0,22.0,87,0.00,,,0.00,Wunderground v.1.15,2013-01-15 23:20:00,
2013-01-15 19:30:00,17.5,13.5,30.36,SSW,205,1.0,22.0,84,0.00,,,0.00,Wunderground v.1.15,2013-01-15 23:30:00,
2013-01-15 19:40:00,17.9,13.3,30.36,SSW,203,1.0,1.0,82,0.00,,,0.00,Wunderground v.1.15,2013-01-15 23:40:00,
2013-01-15 19:50:00,17.8,13.0,30.36,SSW,203,0.0,22.0,81,0.00,,,0.00,Wunderground v.1.15,2013-01-15 23:50:00,
2013-01-15 20:00:00,17.5,12.7,30.36,SSW,203,0.0,22.0,81,0.00,,,0.00,Wunderground v.1.15,2013-01-16 00:00:00,
2013-01-15 20:10:00,17.5,12.7,30.36,SSW,205,0.0,22.0,81,0.00,,,0.00,Wunderground v.1.15,2013-01-16 00:10:00,
2013-01-15 20:20:00,17.4,12.3,30.36,SSW,205,0.0,22.0,80,0.00,,,0.00,Wunderground v.1.15,2013-01-16 00:20:00,
2013-01-15 20:30:00,17.0,12.2,30.36,SSW,205,0.0,22.0,81,0.00,,,0.00,Wunderground v.1.15,2013-01-16 00:30:00,
2013-01-15 20:40:00,16.9,12.4,30.36,SSW,205,0.0,22.0,82,0.00,,,0.00,Wunderground v.1.15,2013-01-16 00:40:00,
2013-01-15 20:50:00,17.4,12.6,30.37,SW,221,1.0,22.0,81,0.00,,,0.00,Wunderground v.1.15,2013-01-16 00:50:00,
2013-01-15 21:00:00,17.7,12.6,30.38,SSW,204,1.0,22.0,80,0.00,,,0.00,Wunderground v.1.15,2013-01-16 01:00:00,
2013-01-15 21:10:00,17.3,12.5,30.38,SSW,205,1.0,22.0,81,0.00,,,0.00,Wunderground v.1.15,2013-01-16 01:10:00,
2013-01-15 21:20:00,17.2,12.6,30.37,SSW,200,1.0,1.0,82,0.00,,,0.00,Wunderground v.1.15,2013-01-16 01:20:00,
2013-01-15 21:30:00,17.3,12.5,30.38,SSW,193,1.0,22.0,81,0.00,,,0.00,Wunderground v.1.15,2013-01-16 01:30:00,
2013-01-15 21:40:00,17.1,12.3,30.37,SSW,195,0.0,22.0,81,0.00,,,0.00,Wunderground v.1.15,2013-01-16 01:40:00,
2013-01-15 21:50:00,16.5,12.0,30.37,SSW,195,0.0,22.0,82,0.00,,,0.00,Wunderground v.1.15,2013-01-16 01:50:00,
2013-01-15 22:00:00,16.2,11.7,30.37,SSW,193,0.0,22.0,82,0.00,,,0.00,Wunderground v.1.15,2013-01-16 02:00:00,
2013-01-15 22:10:00,16.4,11.9,30.37,SSW,195,0.0,22.0,82,0.00,,,0.00,Wunderground v.1.15,2013-01-16 02:10:00,
2013-01-15 22:20:00,16.8,12.0,30.37,SSW,200,0.0,22.0,81,0.00,,,0.00,Wunderground v.1.15,2013-01-16 02:20:00,
2013-01-15 22:30:00,16.9,11.8,30.37,SSW,200,0.0,22.0,80,0.00,,,0.00,Wunderground v.1.15,2013-01-16 02:30:00,
2013-01-15 22:40:00,16.9,11.8,30.37,SSW,207,0.0,22.0,80,0.00,,,0.00,Wunderground v.1.15,2013-01-16 02:40:00,
2013-01-15 22:50:00,17.1,11.7,30.37,SSW,205,0.0,22.0,79,0.00,,,0.00,Wunderground v.1.15,2013-01-16 02:50:00,
2013-01-15 23:00:00,17.3,11.6,30.37,SW,233,0.0,22.0,78,0.00,,,0.00,Wunderground v.1.15,2013-01-16 03:00:00,
2013-01-15 23:10:00,16.8,11.1,30.37,SW,222,0.0,22.0,78,0.00,,,0.00,Wunderground v.1.15,2013-01-16 03:10:00,
2013-01-15 23:20:00,16.4,11.0,30.38,SSW,210,0.0,22.0,79,0.00,,,0.00,Wunderground v.1.15,2013-01-16 03:20:00,
2013-01-15 23:30:00,16.5,11.1,30.37,SW,222,0.0,22.0,79,0.00,,,0.00,Wunderground v.1.15,2013-01-16 03:30:00,
2013-01-15 23:40:00,16.7,11.3,30.37,SSW,204,1.0,22.0,79,0.00,,,0.00,Wunderground v.1.15,2013-01-16 03:40:00,
2013-01-15 23:50:00,17.0,11.6,30.38,SSW,205,1.0,22.0,79,0.00,,,0.00,Wunderground v.1.15,2013-01-16 03:50:00,